Grand Forks AFB, ND

9:33 AM CST on February 20, 2017 (GMT -0600)
Grand Forks Air Force Base

Weather History for KRDR - January, 2013

Change the Weather History Date:

Tuesday, January 1, 2013

  Actual Average Record
Temperature  
Mean Temperature 3 °F -  
Max Temperature 19 °F 16 °F 33 °F (1998)
Min Temperature -13 °F 0 °F -26 °F (2014)
Degree Days  
Heating Degree Days 62    
Moisture  
Dew Point 4 °F    
Average Humidity 82    
Maximum Humidity 87    
Minimum Humidity 75    
Precipitation  
Precipitation 0.00 in - - ()
Sea Level Pressure  
Sea Level Pressure 30.02 in    
Wind  
Wind Speed 7 mph (SW)    
Max Wind Speed 12 mph    
Max Gust Speed -    
Visibility 7 miles    
Events Fog , Snow    
Averages and records for this station are not official NWS values.
T = Trace of Precipitation, MM = Missing Value Source: NWS Daily Summary

Daily Weather History Graph

Daily Weather History Graph

Search for Another Location

Airport or City:

Trip Planner

Search our weather history database for the weather conditions in past years. The results will help you decide how hot, cold, wet, or windy it might be!

Date:

Astronomy

Jan. 01, 2013 Rise Set
Actual Time 8:19 AM CST 4:47 PM CST
Civil Twilight 7:43 AM CST 5:23 PM CST
Nautical Twilight 7:03 AM CST 6:03 PM CST
Astronomical Twilight 6:26 AM CST 6:40 PM CST
Moon 9:42 PM CST (1/1) 10:12 AM CST (1/1)
Length of Visible Light 9h 40m
Length of Day
8h 28m
Waning Gibbous, 83% of the Moon is Illuminated
Jan 1
Waning Gibbous
Jan 4
Last Quarter
Jan 11
New
Jan 18
First Quarter
Jan 26
Full

Hourly Weather History & Observations

Time (CST) Temp. Windchill Dew Point Humidity Pressure Visibility Wind Dir Wind Speed Gust Speed Precip Events Conditions
12:55 AM -13.2 °F -28.8 °F -18.9 °F 75% 30.22 in 10.0 mi SW 6.9 mph - N/A   Clear
1:55 AM -9.0 °F -23.8 °F -14.3 °F 78% 30.21 in 10.0 mi SW 6.9 mph - N/A   Clear
2:55 AM -10.5 °F -24.0 °F -15.9 °F 77% 30.20 in 10.0 mi SSW 5.8 mph - N/A   Clear
3:20 AM -4.0 °F -22.1 °F -9.4 °F 78% 30.19 in 10.0 mi SW 11.5 mph - N/A   Partly Cloudy
3:29 AM -4.0 °F -21.2 °F -9.4 °F 78% 30.19 in 10.0 mi SW 10.4 mph - N/A   Mostly Cloudy
3:47 AM -4.0 °F -16.3 °F -9.4 °F 78% 30.20 in 10.0 mi WSW 5.8 mph - N/A   Scattered Clouds
3:55 AM -4.4 °F -16.7 °F -9.2 °F 80% 30.20 in 10.0 mi WSW 5.8 mph - N/A   Scattered Clouds
4:55 AM -5.8 °F -19.9 °F -10.7 °F 79% 30.18 in 10.0 mi SW 6.9 mph - N/A   Clear
5:21 AM -5.8 °F - -9.4 °F 84% 30.18 in 10.0 mi Calm Calm - N/A   Mostly Cloudy
5:39 AM -4.0 °F -14.6 °F -7.6 °F 85% 30.18 in 10.0 mi SSW 4.6 mph - N/A Snow Light Snow
5:48 AM -2.2 °F -12.5 °F -7.6 °F 78% 30.18 in 10.0 mi SSW 4.6 mph - N/A   Overcast
5:55 AM -2.7 °F -13.1 °F -7.6 °F 80% 30.18 in 10.0 mi SSW 4.6 mph - 0.00 in   Overcast
6:04 AM -2.2 °F -14.2 °F -7.6 °F 78% 30.17 in 10.0 mi SW 5.8 mph - N/A   Overcast
6:37 AM -0.4 °F -12.0 °F -4.0 °F 85% 30.15 in 10.0 mi SW 5.8 mph - N/A   Overcast
6:55 AM 0.5 °F -12.3 °F -3.6 °F 83% 30.15 in 10.0 mi SW 6.9 mph - N/A   Overcast
7:55 AM 2.8 °F -9.5 °F -1.1 °F 84% 30.12 in 10.0 mi SW 6.9 mph - N/A   Overcast
8:37 AM 1.4 °F -9.9 °F -4.0 °F 78% 30.11 in 10.0 mi SW 5.8 mph - N/A   Scattered Clouds
8:39 AM -0.4 °F -12.0 °F -4.0 °F 85% 30.11 in 10.0 mi SW 5.8 mph - N/A   Scattered Clouds
8:40 AM -0.4 °F -12.0 °F -4.0 °F 85% 30.11 in 10.0 mi SW 5.8 mph - N/A   Mostly Cloudy
8:48 AM -0.4 °F -12.0 °F -4.0 °F 85% 30.11 in 10.0 mi SW 5.8 mph - N/A   Mostly Cloudy
8:55 AM 0.3 °F -11.2 °F -4.0 °F 82% 30.11 in 10.0 mi SW 5.8 mph - N/A   Mostly Cloudy
9:01 AM 1.4 °F -12.5 °F -4.0 °F 78% 30.11 in 2.5 mi SW 8.1 mph - N/A   Haze
9:03 AM 1.4 °F -12.5 °F -4.0 °F 78% 30.11 in 1.5 mi SW 8.1 mph - N/A   Haze
9:04 AM 1.4 °F -11.3 °F -4.0 °F 78% 30.11 in 1.2 mi SW 6.9 mph - N/A   Light Freezing Drizzle
9:08 AM 1.4 °F -11.3 °F -4.0 °F 78% 30.11 in 0.8 mi SW 6.9 mph - N/A   Light Freezing Drizzle
9:09 AM 1.4 °F -12.5 °F -2.2 °F 85% 30.11 in 0.8 mi SW 8.1 mph - N/A   Light Freezing Drizzle
9:13 AM 1.4 °F -12.5 °F -2.2 °F 85% 30.10 in 0.8 mi SW 8.1 mph - N/A   Light Freezing Drizzle
9:14 AM 1.4 °F -11.3 °F -2.2 °F 85% 30.06 in 1.0 mi WSW 6.9 mph - N/A Fog Light Freezing Fog
9:15 AM 1.4 °F -11.3 °F -2.2 °F 85% 30.10 in 1.0 mi SW 6.9 mph - N/A   Light Freezing Drizzle
9:19 AM 1.4 °F -12.5 °F -2.2 °F 85% 30.10 in 1.5 mi WSW 8.1 mph - N/A   Light Freezing Drizzle
9:21 AM 1.4 °F -11.3 °F -2.2 °F 85% 30.10 in 2.0 mi WSW 6.9 mph - N/A   Light Freezing Drizzle
9:23 AM 3.2 °F -7.8 °F -2.2 °F 78% 30.10 in 3.0 mi WSW 5.8 mph - N/A   Light Freezing Drizzle
9:29 AM 3.2 °F -9.1 °F -0.4 °F 85% 30.06 in 7.0 mi WSW 6.9 mph - N/A Fog Light Freezing Fog
9:55 AM 5.0 °F -6.9 °F 1.4 °F 85% 30.19 in 7.0 mi SW 6.9 mph - N/A   Mostly Cloudy
10:03 AM 5.0 °F -5.6 °F 1.4 °F 85% 30.10 in 7.0 mi SW 5.8 mph - N/A   Scattered Clouds
10:05 AM 5.0 °F -4.1 °F 1.4 °F 85% 30.10 in 5.0 mi SSW 4.6 mph - N/A Snow Light Snow
10:15 AM 5.0 °F -6.9 °F -0.4 °F 78% 30.09 in 6.0 mi SSW 6.9 mph - N/A   Haze
10:34 AM 5.0 °F -8.1 °F 1.4 °F 85% 30.09 in 10.0 mi SSW 8.1 mph - N/A Snow Light Snow
10:44 AM 6.8 °F -4.8 °F 3.2 °F 85% 30.09 in 10.0 mi SSW 6.9 mph - N/A   Clear
10:45 AM 6.8 °F -4.8 °F 3.2 °F 85% 30.09 in 10.0 mi SSW 6.9 mph - N/A   Partly Cloudy
10:55 AM 6.4 °F -7.3 °F 2.7 °F 84% 30.08 in 10.0 mi SSW 9.2 mph - 0.00 in   Partly Cloudy
11:04 AM 6.8 °F -6.9 °F 3.2 °F 85% 30.08 in 10.0 mi SSW 9.2 mph - N/A   Mostly Cloudy
11:25 AM 6.8 °F -5.9 °F 3.2 °F 85% 30.07 in 10.0 mi SSW 8.1 mph - N/A   Mostly Cloudy
11:33 AM 6.8 °F -5.9 °F 3.2 °F 85% 30.07 in 10.0 mi SSW 8.1 mph - N/A Snow Light Snow
11:35 AM 6.8 °F -6.9 °F 3.2 °F 85% 30.07 in 10.0 mi SSW 9.2 mph - N/A Snow Light Snow
11:42 AM 6.8 °F -5.9 °F 3.2 °F 85% 30.06 in 10.0 mi SSW 8.1 mph - N/A Snow Light Snow
11:43 AM 8.6 °F -3.7 °F 5.0 °F 85% 30.06 in 10.0 mi SSW 8.1 mph - N/A   Overcast
11:51 AM 8.6 °F -4.7 °F 5.0 °F 85% 30.06 in 10.0 mi SSW 9.2 mph - N/A   Overcast
12:05 PM 10.4 °F -2.4 °F 6.8 °F 85% 30.05 in 10.0 mi SSW 9.2 mph - N/A   Overcast
12:41 PM 10.4 °F -2.4 °F 6.8 °F 85% 30.03 in 10.0 mi SSW 9.2 mph - N/A   Overcast
12:47 PM 10.4 °F -2.4 °F 6.8 °F 85% 30.03 in 10.0 mi SSW 9.2 mph - N/A   Overcast
12:55 PM 11.8 °F -0.7 °F 7.7 °F 83% 30.02 in 10.0 mi SSW 9.2 mph - N/A   Overcast
1:06 PM 12.2 °F -0.2 °F 8.6 °F 85% 30.01 in 10.0 mi SSW 9.2 mph - N/A   Overcast
1:20 PM 14.0 °F 2.9 °F 8.6 °F 79% 30.01 in 10.0 mi SW 8.1 mph - N/A   Scattered Clouds
1:55 PM 17.4 °F 5.4 °F 10.9 °F 76% 29.99 in 10.0 mi SSW 10.4 mph - N/A   Clear
2:55 PM 19.2 °F 10.2 °F 12.6 °F 75% 29.97 in 10.0 mi SW 6.9 mph - N/A   Clear
3:55 PM 19.2 °F 7.0 °F 13.1 °F 77% 29.96 in 10.0 mi SW 11.5 mph - N/A   Clear
4:55 PM 16.3 °F 4.9 °F 11.1 °F 80% 29.94 in 10.0 mi SW 9.2 mph - N/A   Clear
5:55 PM 17.4 °F 5.4 °F 12.2 °F 80% 29.93 in 10.0 mi SSW 10.4 mph - N/A   Mostly Cloudy
6:55 PM 18.5 °F 7.5 °F 13.5 °F 81% 29.92 in 10.0 mi SW 9.2 mph - N/A   Mostly Cloudy
7:55 PM 17.8 °F 6.6 °F 12.2 °F 79% 29.91 in 10.0 mi WSW 9.2 mph - N/A   Clear
8:55 PM 17.1 °F 5.0 °F 11.3 °F 78% 29.88 in 10.0 mi SW 10.4 mph - N/A   Mostly Cloudy
9:01 PM 17.6 °F 5.7 °F 12.2 °F 79% 29.88 in 10.0 mi SW 10.4 mph - N/A   Mostly Cloudy
9:03 PM 17.6 °F 6.4 °F 12.2 °F 79% 29.88 in 10.0 mi SW 9.2 mph - N/A Snow Light Snow
9:12 PM 17.6 °F 6.4 °F 12.2 °F 79% 29.88 in 8.0 mi SW 9.2 mph - N/A Snow Light Snow
9:16 PM 17.6 °F 6.4 °F 12.2 °F 79% 29.88 in 5.0 mi SW 9.2 mph - N/A Snow Light Snow
9:23 PM 17.6 °F 7.3 °F 12.2 °F 79% 29.87 in 3.0 mi SW 8.1 mph - N/A Snow Light Snow
9:27 PM 17.6 °F 7.3 °F 12.2 °F 79% 29.87 in 2.5 mi SSW 8.1 mph - N/A Snow Light Snow
9:32 PM 17.6 °F 7.3 °F 12.2 °F 79% 29.87 in 2.5 mi SW 8.1 mph - N/A Snow Light Snow
9:34 PM 17.6 °F 7.3 °F 12.2 °F 79% 29.87 in 3.0 mi SW 8.1 mph - N/A Snow Light Snow
9:51 PM 17.6 °F 7.3 °F 12.2 °F 79% 29.86 in 7.0 mi SW 8.1 mph - N/A Snow Light Snow
9:55 PM 17.4 °F 7.1 °F 12.9 °F 83% 29.86 in 6.0 mi SW 8.1 mph - 0.00 in Snow Light Snow
10:04 PM 17.6 °F 8.2 °F 14.0 °F 86% 29.86 in 3.0 mi SW 6.9 mph - N/A Snow Light Snow
10:05 PM 17.6 °F 8.2 °F 14.0 °F 86% 29.86 in 3.0 mi SW 6.9 mph - N/A Snow Light Snow
10:31 PM 17.6 °F 7.3 °F 14.0 °F 86% 29.85 in 4.0 mi SSW 8.1 mph - N/A Snow Light Snow
10:43 PM 17.6 °F 8.2 °F 14.0 °F 86% 29.85 in 3.0 mi SSW 6.9 mph - N/A Snow Light Snow
10:45 PM 17.6 °F 7.3 °F 14.0 °F 86% 29.85 in 4.0 mi SSW 8.1 mph - N/A Snow Light Snow
10:47 PM 17.6 °F 7.3 °F 14.0 °F 86% 29.85 in 5.0 mi SSW 8.1 mph - N/A Snow Light Snow
10:55 PM 18.0 °F 7.7 °F 14.7 °F 87% 29.85 in 8.0 mi SSW 8.1 mph - 0.00 in Snow Light Snow
11:16 PM 19.4 °F 10.4 °F 15.8 °F 86% 29.85 in 8.0 mi SSW 6.9 mph - N/A Snow Light Snow
11:18 PM 19.4 °F 10.4 °F 15.8 °F 86% 29.85 in 7.0 mi SSW 6.9 mph - N/A Snow Light Snow
11:21 PM 19.4 °F 9.5 °F 15.8 °F 86% 29.85 in 6.0 mi SSW 8.1 mph - N/A Snow Light Snow
11:22 PM 19.4 °F 10.4 °F 15.8 °F 86% 29.85 in 6.0 mi SSW 6.9 mph - N/A Snow Light Snow
11:30 PM 19.4 °F 9.5 °F 15.8 °F 86% 29.85 in 5.0 mi SSW 8.1 mph - N/A Snow Light Snow
11:35 PM 19.4 °F 9.5 °F 15.8 °F 86% 29.85 in 5.0 mi SSW 8.1 mph - N/A Snow Light Snow
11:41 PM 19.4 °F 10.4 °F 15.8 °F 86% 29.85 in 5.0 mi SSW 6.9 mph - N/A Snow Light Snow
11:42 PM 19.4 °F 10.4 °F 15.8 °F 86% 29.85 in 5.0 mi SSW 6.9 mph - N/A Snow Light Snow
11:45 PM 19.4 °F 11.5 °F 15.8 °F 86% 29.84 in 4.0 mi SSW 5.8 mph - N/A Snow Light Snow
11:50 PM 19.4 °F 11.5 °F 15.8 °F 86% 29.84 in 4.0 mi SSW 5.8 mph - N/A Snow Light Snow
11:51 PM 19.4 °F 10.4 °F 15.8 °F 86% 29.85 in 4.0 mi SSW 6.9 mph - N/A Snow Light Snow
11:58 PM 19.4 °F 10.4 °F 15.8 °F 86% 29.85 in 6.0 mi South 6.9 mph - N/A Snow Light Snow